Location: ???? ?????
(30.0052°N, 31.2891°E)
Time: 19:20:38
(UTC+00:00)

ACS3 Solar Sail - Pass Details

Date: 24 September 2024
Orbit: 960 x 1036 km, 97.4° (Epoch: 09 October)

Event Time Altitude Azimuth Distance (km) Brightness Sun altitude
Exits shadow 19:23:48 22° 288° (WNW) 2,099 3.9 -45.3°
Drops below altitude 10° 19:27:13 10° 318° (NW) 2,841 4.8 -45.9°
Sets 19:30:18 0° 332° (NNW) 3,794 5.5 -46.5°
